This demonstration page uses our WeatherBlox Daily Observations layout. Learn more.

Left ArrowRight Arrow

Hourly Observations for November 27, 2016

Temp ( °F °C ) Dew Point ( °F °C ) Humidity (%) Winds ( mph kmh ) Pressure ( in mb ) Visibility ( mi km ) Precip ( " mm )
12:51 am 00:51 Mostly Cloudy 65 18.3 27 -2.8 24 24 SW 10 17 29.81 1009 10 16.0934 0.04 1.016
1:51 am 01:51 Clear 60 15.6 30 -1.1 32 32 NW 14 22 29.8 1009 10 16.0934 N/A
2:51 am 02:51 Mostly Clear 57 13.9 33 0.6 41 41 NW 10 17 29.82 1010 10 16.0934 N/A
3:51 am 03:51 Clear 55 12.8 32 undefined 42 42 NNW 12 19 29.85 1011 10 16.0934 N/A
4:51 am 04:51 Clear 54 12.2 35 1.7 49 49 NW 17 28 29.83 1010 10 16.0934 N/A
5:51 am 05:51 Clear 53 11.7 35 1.7 51 51 NNW 18 30 29.85 1011 10 16.0934 N/A
6:51 am 06:51 Clear 50 10 36 2.2 59 59 NW 15 24 29.86 1011 10 16.0934 N/A
7:51 am 07:51 Sunny 52 11.1 34 1.1 50 50 NW 20 31 29.87 1012 10 16.0934 N/A
8:51 am 08:51 Sunny 51 10.6 33 0.6 50 50 WNW 17 28 29.89 1012 10 16.0934 N/A
9:51 am 09:51 Sunny 53 11.7 31 -0.6 43 43 NW 17 28 29.88 1012 10 16.0934 N/A
10:51 am 10:51 Sunny 56 13.3 30 -1.1 37 37 WNW 15 24 29.87 1012 10 16.0934 N/A
11:51 am 11:51 Sunny 58 14.4 29 -1.7 33 33 WNW 8 13 29.83 1010 10 16.0934 N/A
12:51 pm 12:51 Mostly Sunny 58 14.4 29 -1.7 33 33 NNE 9 15 29.78 1009 10 16.0934 N/A
1:40 pm 13:40 Sunny 61 16.1 26 -3.3 26 26 WNW 23 37 29.74 1007 10 16.0934 N/A
1:51 pm 13:51 Sunny 61 16.1 26 -3.3 26 26 NW 18 30 29.75 1007 10 16.0934 N/A
2:51 pm 14:51 Sunny 60 15.6 27 -2.8 28 28 WNW 23 37 29.74 1007 10 16.0934 N/A
3:51 pm 15:51 Mostly Sunny 56 13.3 27 -2.8 33 33 NW 24 39 29.75 1007 10 16.0934 N/A
4:51 pm 16:51 Mostly Cloudy 54 12.2 28 -2.2 37 37 NW 21 33 29.75 1008 10 16.0934 N/A
5:51 pm 17:51 Cloudy 53 11.7 28 -2.2 38 38 NW 15 24 29.77 1008 10 16.0934 N/A
6:51 pm 18:51 Cloudy 52 11.1 29 -1.7 41 41 NW 8 13 29.78 1009 10 16.0934 N/A
7:51 pm 19:51 Cloudy 52 11.1 29 -1.7 41 41 NW 17 28 29.77 1008 10 16.0934 N/A
8:51 pm 20:51 Cloudy 51 10.6 30 -1.1 44 44 NW 9 15 29.78 1008 10 16.0934 N/A
9:51 pm 21:51 Cloudy 49 9.4 34 1.1 56 56 WNW 15 24 29.78 1009 10 16.0934 N/A
10:51 pm 22:51 Cloudy 46 7.8 40 4.4 79 79 W 5 7 29.78 1009 10 16.0934 N/A
11:46 pm 23:46 Cloudy with Light Rain 45 7 39 4 81 81 WNW 24 39 29.88 1012 10 16.0934 0.03 0.762
11:51 pm 23:51 Cloudy with Light Rain 44 6.7 39 3.9 83 83 WNW 29 46 29.81 1009 10 16.0934 0.03 0.762

Powered by AerisWeather